Time,TemperatureF,DewpointF,PressureIn,WindDirection,WindDirectionDegrees,WindSpeedMPH,WindSpeedGustMPH,Humidity,HourlyPrecipIn,Conditions,Clouds,dailyrainin,SoftwareType,DateUTC
2013-06-15 00:00:00,72.7,64.3,29.84,ESE,102,0.0,0.0,75,0.00,,OVC110,0.00,VWS V14.01,2013-06-15 05:00:00,
2013-06-15 00:04:00,72.6,64.2,29.84,ESE,118,0.0,0.0,75,0.00,,CLR,0.00,VWS V14.01,2013-06-15 05:04:00,
2013-06-15 00:10:00,72.6,64.2,29.84,ESE,118,0.0,0.0,75,0.00,,CLR,0.00,VWS V14.01,2013-06-15 05:10:00,
2013-06-15 00:15:00,72.5,64.1,29.85,ESE,118,0.0,0.0,75,0.00,,CLR,0.00,VWS V14.01,2013-06-15 05:15:00,
2013-06-15 00:20:00,72.4,63.7,29.85,ESE,118,0.0,0.0,74,0.00,,CLR,0.00,VWS V14.01,2013-06-15 05:20:00,
2013-06-15 00:25:00,72.3,63.6,29.84,ESE,119,0.0,1.0,74,0.00,,CLR,0.00,VWS V14.01,2013-06-15 05:25:00,
2013-06-15 00:30:00,72.3,63.6,29.84,SSW,197,0.0,0.0,74,0.00,,CLR,0.00,VWS V14.01,2013-06-15 05:30:00,
2013-06-15 00:35:00,72.2,63.5,29.84,SE,146,0.0,0.0,74,0.00,,CLR,0.00,VWS V14.01,2013-06-15 05:35:00,
2013-06-15 00:40:00,72.2,63.5,29.84,SE,146,0.0,0.0,74,0.00,,CLR,0.00,VWS V14.01,2013-06-15 05:40:00,
2013-06-15 00:45:00,72.2,63.5,29.84,SE,146,0.0,1.0,74,0.00,,CLR,0.00,VWS V14.01,2013-06-15 05:45:00,
2013-06-15 00:50:00,72.1,63.4,29.84,SE,146,0.0,1.0,74,0.00,,CLR,0.00,VWS V14.01,2013-06-15 05:50:00,
2013-06-15 00:55:00,72.0,63.3,29.84,ESE,121,0.0,1.0,74,0.00,,CLR,0.00,VWS V14.01,2013-06-15 05:55:00,
2013-06-15 01:00:00,71.8,63.5,29.84,ESE,121,0.0,0.0,75,0.00,,CLR,0.00,VWS V14.01,2013-06-15 06:00:00,
2013-06-15 01:06:00,71.7,63.4,29.84,ESE,121,0.0,1.0,75,0.00,,CLR,0.00,VWS V14.01,2013-06-15 06:06:00,
2013-06-15 01:11:00,71.6,63.3,29.84,ESE,121,0.0,1.0,75,0.00,,CLR,0.00,VWS V14.01,2013-06-15 06:11:00,
2013-06-15 01:16:00,71.4,63.5,29.84,ESE,121,0.0,1.0,76,0.00,,CLR,0.00,VWS V14.01,2013-06-15 06:16:00,
2013-06-15 01:21:00,71.2,63.3,29.84,ESE,121,0.0,1.0,76,0.00,,CLR,0.00,VWS V14.01,2013-06-15 06:21:00,
2013-06-15 01:26:00,71.0,63.4,29.84,ESE,121,0.0,1.0,77,0.00,,CLR,0.00,VWS V14.01,2013-06-15 06:26:00,
2013-06-15 01:30:00,70.9,63.7,29.84,ESE,121,0.0,1.0,78,0.00,,OVC110,0.00,VWS V14.01,2013-06-15 06:30:00,
2013-06-15 01:31:00,70.8,63.6,29.84,ESE,121,0.0,0.0,78,0.00,,CLR,0.00,VWS V14.01,2013-06-15 06:31:00,
2013-06-15 01:36:00,70.6,63.4,29.84,ESE,121,0.0,0.0,78,0.00,,CLR,0.00,VWS V14.01,2013-06-15 06:36:00,
2013-06-15 01:41:00,70.3,63.1,29.84,ESE,121,0.0,1.0,78,0.00,,CLR,0.00,VWS V14.01,2013-06-15 06:41:00,
2013-06-15 01:46:00,70.1,62.9,29.84,ESE,121,0.0,1.0,78,0.00,,CLR,0.00,VWS V14.01,2013-06-15 06:46:00,
2013-06-15 01:51:00,70.0,63.2,29.84,ESE,121,0.0,1.0,79,0.00,,CLR,0.00,VWS V14.01,2013-06-15 06:51:00,
2013-06-15 01:56:00,69.8,63.0,29.84,ESE,121,0.0,1.0,79,0.00,,CLR,0.00,VWS V14.01,2013-06-15 06:56:00,
2013-06-15 02:00:00,69.7,62.9,29.84,ESE,121,0.0,1.0,79,0.00,,OVC110,0.00,VWS V14.01,2013-06-15 07:00:00,
2013-06-15 02:01:00,69.6,63.2,29.85,ESE,121,0.0,0.0,80,0.00,,CLR,0.00,VWS V14.01,2013-06-15 07:01:00,
2013-06-15 02:06:00,69.5,62.7,29.85,ESE,121,0.0,0.0,79,0.00,,CLR,0.00,VWS V14.01,2013-06-15 07:06:00,
2013-06-15 02:12:00,69.4,62.6,29.84,ESE,121,0.0,0.0,79,0.00,,CLR,0.00,VWS V14.01,2013-06-15 07:12:00,
2013-06-15 02:17:00,69.4,63.0,29.85,ESE,121,0.0,0.0,80,0.00,,CLR,0.00,VWS V14.01,2013-06-15 07:17:00,
2013-06-15 02:22:00,69.3,62.9,29.84,ESE,121,0.0,0.0,80,0.00,,CLR,0.00,VWS V14.01,2013-06-15 07:22:00,
2013-06-15 02:27:00,69.3,62.9,29.84,ESE,121,0.0,0.0,80,0.00,,CLR,0.00,VWS V14.01,2013-06-15 07:27:00,
2013-06-15 02:30:00,69.2,62.8,29.84,ESE,121,0.0,0.0,80,0.00,,OVC110,0.00,VWS V14.01,2013-06-15 07:30:00,
2013-06-15 02:32:00,69.2,62.8,29.84,ESE,121,0.0,0.0,80,0.00,,CLR,0.00,VWS V14.01,2013-06-15 07:32:00,
2013-06-15 02:37:00,69.1,62.7,29.84,ESE,121,0.0,0.0,80,0.00,,CLR,0.00,VWS V14.01,2013-06-15 07:37:00,
2013-06-15 02:42:00,69.1,62.3,29.84,ESE,121,0.0,0.0,79,0.00,,CLR,0.00,VWS V14.01,2013-06-15 07:42:00,
2013-06-15 02:47:00,69.1,62.3,29.84,ESE,121,0.0,0.0,79,0.00,,CLR,0.00,VWS V14.01,2013-06-15 07:47:00,
2013-06-15 02:52:00,69.2,62.4,29.84,ESE,121,0.0,0.0,79,0.00,,CLR,0.00,VWS V14.01,2013-06-15 07:52:00,
2013-06-15 02:57:00,69.2,62.4,29.84,ESE,121,0.0,0.0,79,0.00,,CLR,0.00,VWS V14.01,2013-06-15 07:57:00,
2013-06-15 03:00:00,69.3,62.5,29.84,ESE,121,0.0,0.0,79,0.00,,OVC110,0.00,VWS V14.01,2013-06-15 08:00:00,
2013-06-15 03:03:00,69.2,62.4,29.84,ESE,121,0.0,0.0,79,0.00,,CLR,0.00,VWS V14.01,2013-06-15 08:03:00,
2013-06-15 03:08:00,69.2,62.8,29.84,ESE,121,0.0,0.0,80,0.00,,CLR,0.00,VWS V14.01,2013-06-15 08:08:00,
2013-06-15 03:13:00,69.0,62.9,29.84,ESE,121,0.0,0.0,81,0.00,,CLR,0.00,VWS V14.01,2013-06-15 08:13:00,
2013-06-15 03:18:00,68.9,62.5,29.84,ESE,121,0.0,0.0,80,0.00,,CLR,0.00,VWS V14.01,2013-06-15 08:18:00,
2013-06-15 03:23:00,68.7,62.3,29.84,ESE,121,0.0,0.0,80,0.00,,CLR,0.00,VWS V14.01,2013-06-15 08:23:00,
2013-06-15 03:28:00,68.6,62.2,29.84,ESE,121,0.0,0.0,80,0.00,,CLR,0.00,VWS V14.01,2013-06-15 08:28:00,
2013-06-15 03:30:00,68.5,62.1,29.83,ESE,121,0.0,0.0,80,0.00,,OVC110,0.00,VWS V14.01,2013-06-15 08:30:00,
2013-06-15 03:33:00,68.5,62.1,29.83,ESE,121,0.0,0.0,80,0.00,,CLR,0.00,VWS V14.01,2013-06-15 08:33:00,
2013-06-15 03:38:00,68.5,62.5,29.83,ESE,121,0.0,0.0,81,0.00,,CLR,0.00,VWS V14.01,2013-06-15 08:38:00,
2013-06-15 03:43:00,68.5,62.5,29.83,ESE,121,0.0,0.0,81,0.00,,CLR,0.00,VWS V14.01,2013-06-15 08:43:00,
2013-06-15 03:48:00,68.4,62.3,29.83,ESE,121,0.0,0.0,81,0.00,,CLR,0.00,VWS V14.01,2013-06-15 08:48:00,
2013-06-15 03:53:00,68.4,62.7,29.83,ESE,121,0.0,0.0,82,0.00,,CLR,0.00,VWS V14.01,2013-06-15 08:53:00,
2013-06-15 03:58:00,68.3,62.6,29.83,ESE,121,0.0,0.0,82,0.00,,CLR,0.00,VWS V14.01,2013-06-15 08:58:00,
2013-06-15 04:00:00,68.3,62.6,29.83,ESE,121,0.0,0.0,82,0.00,,OVC110,0.00,VWS V14.01,2013-06-15 09:00:00,
2013-06-15 04:03:00,68.2,62.5,29.83,ESE,121,0.0,0.0,82,0.00,,CLR,0.00,VWS V14.01,2013-06-15 09:03:00,
2013-06-15 04:09:00,68.1,62.4,29.83,ESE,121,0.0,0.0,82,0.00,,CLR,0.00,VWS V14.01,2013-06-15 09:09:00,
2013-06-15 04:14:00,68.0,62.3,29.83,ESE,121,0.0,0.0,82,0.00,,CLR,0.00,VWS V14.01,2013-06-15 09:14:00,
2013-06-15 04:19:00,67.9,62.5,29.83,ESE,121,0.0,0.0,83,0.00,,CLR,0.00,VWS V14.01,2013-06-15 09:19:00,
2013-06-15 04:24:00,67.6,62.3,29.83,ESE,121,0.0,0.0,83,0.00,,CLR,0.00,VWS V14.01,2013-06-15 09:24:00,
2013-06-15 04:29:00,67.5,62.2,29.82,ESE,121,0.0,0.0,83,0.00,,CLR,0.00,VWS V14.01,2013-06-15 09:29:00,
2013-06-15 04:30:00,67.5,62.2,29.82,ESE,121,0.0,0.0,83,0.00,,OVC110,0.00,VWS V14.01,2013-06-15 09:30:00,
2013-06-15 04:34:00,67.3,62.3,29.82,ESE,121,0.0,0.0,84,0.00,,CLR,0.00,VWS V14.01,2013-06-15 09:34:00,
2013-06-15 04:39:00,67.1,62.1,29.82,ESE,121,0.0,0.0,84,0.00,,CLR,0.00,VWS V14.01,2013-06-15 09:39:00,
2013-06-15 04:44:00,66.9,62.2,29.82,ESE,121,0.0,0.0,85,0.00,,CLR,0.00,VWS V14.01,2013-06-15 09:44:00,
2013-06-15 04:49:00,66.7,62.0,29.82,ESE,121,0.0,0.0,85,0.00,,CLR,0.00,VWS V14.01,2013-06-15 09:49:00,
2013-06-15 04:54:00,66.6,62.0,29.82,ESE,121,0.0,0.0,85,0.00,,CLR,0.00,VWS V14.01,2013-06-15 09:54:00,
2013-06-15 04:59:00,66.4,62.1,29.82,ESE,121,0.0,0.0,86,0.00,,CLR,0.00,VWS V14.01,2013-06-15 09:59:00,
2013-06-15 05:00:00,66.4,62.1,29.82,ESE,121,0.0,0.0,86,0.00,,OVC110,0.00,VWS V14.01,2013-06-15 10:00:00,
2013-06-15 05:04:00,66.3,62.0,29.82,ESE,121,0.0,0.0,86,0.00,,CLR,0.00,VWS V14.01,2013-06-15 10:04:00,
2013-06-15 05:09:00,66.3,62.0,29.82,ESE,121,0.0,1.0,86,0.00,,CLR,0.00,VWS V14.01,2013-06-15 10:09:00,
2013-06-15 05:15:00,66.3,61.3,29.82,SE,133,0.0,1.0,84,0.00,,CLR,0.00,VWS V14.01,2013-06-15 10:15:00,
2013-06-15 05:20:00,66.3,61.3,29.82,SE,133,0.0,1.0,84,0.00,,CLR,0.00,VWS V14.01,2013-06-15 10:20:00,
2013-06-15 05:25:00,66.4,61.4,29.82,SE,133,0.0,1.0,84,0.00,,CLR,0.00,VWS V14.01,2013-06-15 10:25:00,
2013-06-15 05:30:00,66.4,61.4,29.83,SE,133,0.0,0.0,84,0.00,,CLR,0.00,VWS V14.01,2013-06-15 10:30:00,
2013-06-15 05:35:00,66.5,61.5,29.83,SE,133,0.0,0.0,84,0.00,,CLR,0.00,VWS V14.01,2013-06-15 10:35:00,
2013-06-15 05:40:00,66.6,62.0,29.82,SE,133,0.0,0.0,85,0.00,,CLR,0.00,VWS V14.01,2013-06-15 10:40:00,
2013-06-15 05:45:00,66.6,62.0,29.83,SE,133,0.0,0.0,85,0.00,,CLR,0.00,VWS V14.01,2013-06-15 10:45:00,
2013-06-15 05:50:00,66.5,61.9,29.83,SE,133,0.0,0.0,85,0.00,,CLR,0.00,VWS V14.01,2013-06-15 10:50:00,
2013-06-15 05:55:00,66.4,61.8,29.83,SE,133,0.0,0.0,85,0.00,,CLR,0.00,VWS V14.01,2013-06-15 10:55:00,
2013-06-15 06:00:00,66.3,62.0,29.83,SE,133,0.0,0.0,86,0.00,,CLR,0.00,VWS V14.01,2013-06-15 11:00:00,
2013-06-15 06:05:00,66.1,61.8,29.84,SE,133,0.0,0.0,86,0.00,,CLR,0.00,VWS V14.01,2013-06-15 11:05:00,
2013-06-15 06:10:00,66.0,61.7,29.84,SE,133,0.0,0.0,86,0.00,,CLR,0.00,VWS V14.01,2013-06-15 11:10:00,
2013-06-15 06:16:00,65.9,61.9,29.84,SE,133,0.0,0.0,87,0.00,,CLR,0.00,VWS V14.01,2013-06-15 11:16:00,
2013-06-15 06:21:00,65.8,61.8,29.84,SE,133,0.0,0.0,87,0.00,,CLR,0.00,VWS V14.01,2013-06-15 11:21:00,
2013-06-15 06:26:00,65.8,61.8,29.84,SE,133,0.0,0.0,87,0.00,,CLR,0.00,VWS V14.01,2013-06-15 11:26:00,
2013-06-15 06:30:00,65.9,61.9,29.84,SE,133,0.0,0.0,87,0.00,,OVC110,0.00,VWS V14.01,2013-06-15 11:30:00,
2013-06-15 06:31:00,66.0,62.0,29.84,SE,133,0.0,0.0,87,0.00,,CLR,0.00,VWS V14.01,2013-06-15 11:31:00,
2013-06-15 06:36:00,66.1,61.8,29.84,SE,133,0.0,0.0,86,0.00,,CLR,0.00,VWS V14.01,2013-06-15 11:36:00,
2013-06-15 06:41:00,66.3,62.0,29.84,SE,133,0.0,0.0,86,0.00,,CLR,0.00,VWS V14.01,2013-06-15 11:41:00,
2013-06-15 06:46:00,66.4,62.4,29.85,SE,133,0.0,0.0,87,0.00,,CLR,0.00,VWS V14.01,2013-06-15 11:46:00,
2013-06-15 06:51:00,66.6,62.6,29.85,South,188,0.0,1.0,87,0.00,,CLR,0.00,VWS V14.01,2013-06-15 11:51:00,
2013-06-15 06:56:00,66.8,63.1,29.84,South,188,0.0,1.0,88,0.00,,CLR,0.00,VWS V14.01,2013-06-15 11:56:00,
2013-06-15 07:00:00,66.9,62.9,29.84,South,188,0.0,1.0,87,0.00,,OVC110,0.00,VWS V14.01,2013-06-15 12:00:00,
2013-06-15 07:01:00,67.0,63.0,29.85,South,188,0.0,0.0,87,0.00,,CLR,0.00,VWS V14.01,2013-06-15 12:01:00,
2013-06-15 07:06:00,67.2,63.5,29.85,South,188,0.0,0.0,88,0.00,,CLR,0.00,VWS V14.01,2013-06-15 12:06:00,
2013-06-15 07:11:00,67.5,63.8,29.85,South,186,0.0,0.0,88,0.00,,CLR,0.00,VWS V14.01,2013-06-15 12:11:00,
2013-06-15 07:16:00,67.8,63.8,29.85,South,181,0.0,0.0,87,0.00,,CLR,0.00,VWS V14.01,2013-06-15 12:16:00,
2013-06-15 07:22:00,68.2,64.2,29.85,SSE,164,0.0,1.0,87,0.00,,CLR,0.00,VWS V14.01,2013-06-15 12:22:00,
2013-06-15 07:27:00,68.6,64.6,29.85,SSE,164,0.0,1.0,87,0.00,,CLR,0.00,VWS V14.01,2013-06-15 12:27:00,
2013-06-15 07:30:00,69.0,64.6,29.85,SSE,164,0.0,1.0,86,0.00,,OVC110,0.00,VWS V14.01,2013-06-15 12:30:00,
2013-06-15 07:32:00,69.2,64.5,29.85,SSE,164,0.0,0.0,85,0.00,,CLR,0.00,VWS V14.01,2013-06-15 12:32:00,
2013-06-15 07:37:00,69.6,63.9,29.86,ESE,119,0.0,1.0,82,0.00,,CLR,0.00,VWS V14.01,2013-06-15 12:37:00,
2013-06-15 07:42:00,70.1,64.7,29.86,ESE,107,0.0,1.0,83,0.00,,CLR,0.00,VWS V14.01,2013-06-15 12:42:00,
2013-06-15 07:47:00,70.6,64.1,29.86,ESE,113,0.0,1.0,80,0.00,,CLR,0.00,VWS V14.01,2013-06-15 12:47:00,
2013-06-15 07:52:00,71.0,63.8,29.86,East,95,0.0,2.0,78,0.00,,CLR,0.00,VWS V14.01,2013-06-15 12:52:00,
2013-06-15 07:57:00,71.4,63.5,29.86,SE,137,1.0,2.0,76,0.00,,CLR,0.00,VWS V14.01,2013-06-15 12:57:00,
2013-06-15 08:00:00,71.5,63.5,29.86,SE,137,0.0,2.0,76,0.00,,OVC110,0.00,VWS V14.01,2013-06-15 13:00:00,
2013-06-15 08:02:00,71.7,63.7,29.86,ESE,113,0.0,1.0,76,0.00,,CLR,0.00,VWS V14.01,2013-06-15 13:02:00,
2013-06-15 08:07:00,71.9,63.5,29.86,ESE,114,0.0,2.0,75,0.00,,CLR,0.00,VWS V14.01,2013-06-15 13:07:00,
2013-06-15 08:12:00,72.2,63.8,29.86,ESE,114,0.0,2.0,75,0.00,,CLR,0.00,VWS V14.01,2013-06-15 13:12:00,
2013-06-15 08:17:00,72.4,63.7,29.85,ESE,114,0.0,2.0,74,0.00,,CLR,0.00,VWS V14.01,2013-06-15 13:17:00,
2013-06-15 08:22:00,72.8,64.0,29.85,ESE,114,0.0,2.0,74,0.00,,CLR,0.00,VWS V14.01,2013-06-15 13:22:00,
2013-06-15 08:28:00,73.1,63.9,29.85,ESE,114,0.0,2.0,73,0.00,,CLR,0.00,VWS V14.01,2013-06-15 13:28:00,
2013-06-15 08:30:00,73.2,64.4,29.85,ESE,115,1.0,2.0,74,0.00,,OVC110,0.00,VWS V14.01,2013-06-15 13:30:00,
2013-06-15 08:33:00,73.3,64.5,29.86,SSE,157,1.0,1.0,74,0.00,,CLR,0.00,VWS V14.01,2013-06-15 13:33:00,
2013-06-15 08:38:00,73.7,63.7,29.86,SSE,166,0.0,1.0,71,0.00,,CLR,0.00,VWS V14.01,2013-06-15 13:38:00,
2013-06-15 08:43:00,74.0,64.0,29.86,SSE,166,0.0,1.0,71,0.00,,CLR,0.00,VWS V14.01,2013-06-15 13:43:00,
2013-06-15 08:48:00,74.4,63.2,29.86,SSE,161,0.0,1.0,68,0.00,,CLR,0.00,VWS V14.01,2013-06-15 13:48:00,
2013-06-15 08:53:00,74.9,64.9,29.86,SSE,165,0.0,1.0,71,0.00,,CLR,0.00,VWS V14.01,2013-06-15 13:53:00,
2013-06-15 08:58:00,75.3,63.2,29.86,SSE,150,1.0,1.0,66,0.00,,CLR,0.00,VWS V14.01,2013-06-15 13:58:00,
2013-06-15 09:00:00,75.4,63.3,29.86,SSE,150,0.0,1.0,66,0.00,,OVC110,0.00,VWS V14.01,2013-06-15 14:00:00,
2013-06-15 09:03:00,75.7,65.2,29.86,SSE,150,0.0,0.0,70,0.00,,CLR,0.00,VWS V14.01,2013-06-15 14:03:00,
2013-06-15 09:08:00,76.0,63.4,29.86,SE,142,0.0,2.0,65,0.00,,CLR,0.00,VWS V14.01,2013-06-15 14:08:00,
2013-06-15 09:13:00,76.6,64.8,29.86,ESE,117,0.0,2.0,67,0.00,,CLR,0.00,VWS V14.01,2013-06-15 14:13:00,
2013-06-15 09:18:00,77.0,63.9,29.86,ESE,119,0.0,2.0,64,0.00,,CLR,0.00,VWS V14.01,2013-06-15 14:18:00,
2013-06-15 09:23:00,77.6,64.9,29.86,SE,142,0.0,2.0,65,0.00,,CLR,0.00,VWS V14.01,2013-06-15 14:23:00,
2013-06-15 09:28:00,78.0,65.3,29.86,SSE,154,0.0,3.0,65,0.00,,CLR,0.00,VWS V14.01,2013-06-15 14:28:00,
2013-06-15 09:30:00,78.2,65.5,29.86,SSE,154,0.0,3.0,65,0.00,,OVC110,0.00,VWS V14.01,2013-06-15 14:30:00,
2013-06-15 09:33:00,78.4,64.3,29.86,SSE,157,0.0,1.0,62,0.00,,CLR,0.00,VWS V14.01,2013-06-15 14:33:00,
2013-06-15 09:38:00,78.9,64.3,29.86,SSE,155,0.0,1.0,61,0.00,,CLR,0.00,VWS V14.01,2013-06-15 14:38:00,
2013-06-15 09:44:00,79.2,63.2,29.86,SSE,150,0.0,2.0,58,0.00,,CLR,0.00,VWS V14.01,2013-06-15 14:44:00,
2013-06-15 09:49:00,79.5,63.4,29.86,South,173,0.0,2.0,58,0.00,,CLR,0.00,VWS V14.01,2013-06-15 14:49:00,
2013-06-15 09:54:00,79.8,64.7,29.86,SSE,151,1.0,2.0,60,0.00,,CLR,0.00,VWS V14.01,2013-06-15 14:54:00,
2013-06-15 09:59:00,80.2,64.1,29.86,SSE,163,0.0,2.0,58,0.00,,CLR,0.00,VWS V14.01,2013-06-15 14:59:00,
2013-06-15 10:00:00,80.2,64.1,29.86,South,185,1.0,2.0,58,0.00,,OVC110,0.00,VWS V14.01,2013-06-15 15:00:00,
2013-06-15 10:04:00,80.3,64.7,29.86,ESE,121,0.0,3.0,59,0.00,,CLR,0.00,VWS V14.01,2013-06-15 15:04:00,
2013-06-15 10:09:00,80.7,65.1,29.86,South,178,0.0,3.0,59,0.00,,CLR,0.00,VWS V14.01,2013-06-15 15:09:00,
2013-06-15 10:14:00,80.8,65.2,29.86,East,95,1.0,3.0,59,0.00,,CLR,0.00,VWS V14.01,2013-06-15 15:14:00,
2013-06-15 10:19:00,81.2,65.5,29.86,SSE,148,0.0,3.0,59,0.00,,CLR,0.00,VWS V14.01,2013-06-15 15:19:00,
2013-06-15 10:24:00,81.6,65.4,29.86,ESE,121,0.0,3.0,58,0.00,,CLR,0.00,VWS V14.01,2013-06-15 15:24:00,
2013-06-15 10:29:00,81.9,65.2,29.86,SE,124,0.0,3.0,57,0.00,,CLR,0.00,VWS V14.01,2013-06-15 15:29:00,
2013-06-15 10:30:00,81.9,65.7,29.86,SE,124,0.0,3.0,58,0.00,,OVC110,0.00,VWS V14.01,2013-06-15 15:30:00,
2013-06-15 10:34:00,82.0,64.8,29.86,South,190,0.0,1.0,56,0.00,,CLR,0.00,VWS V14.01,2013-06-15 15:34:00,
2013-06-15 10:39:00,81.9,65.2,29.86,SSW,207,0.0,1.0,57,0.00,,CLR,0.00,VWS V14.01,2013-06-15 15:39:00,
2013-06-15 10:44:00,82.1,65.9,29.86,South,180,2.0,2.0,58,0.00,,CLR,0.00,VWS V14.01,2013-06-15 15:44:00,
2013-06-15 10:50:00,82.5,65.8,29.86,East,81,0.0,5.0,57,0.00,,CLR,0.00,VWS V14.01,2013-06-15 15:50:00,
2013-06-15 10:55:00,82.6,66.3,29.86,SE,129,0.0,5.0,58,0.00,,CLR,0.00,VWS V14.01,2013-06-15 15:55:00,
2013-06-15 11:00:00,82.7,65.4,29.86,SE,129,0.0,0.0,56,0.00,,CLR,0.00,VWS V14.01,2013-06-15 16:00:00,
2013-06-15 11:05:00,83.2,66.9,29.85,South,180,0.0,2.0,58,0.00,,CLR,0.00,VWS V14.01,2013-06-15 16:05:00,
2013-06-15 11:10:00,83.5,65.7,29.86,South,178,0.0,2.0,55,0.00,,CLR,0.00,VWS V14.01,2013-06-15 16:10:00,
2013-06-15 11:15:00,83.7,66.9,29.86,SSE,158,0.0,2.0,57,0.00,,CLR,0.00,VWS V14.01,2013-06-15 16:15:00,
2013-06-15 11:20:00,84.0,66.1,29.86,SSE,165,0.0,2.0,55,0.00,,CLR,0.00,VWS V14.01,2013-06-15 16:20:00,
2013-06-15 11:25:00,84.3,66.9,29.85,SSW,196,0.0,2.0,56,0.00,,CLR,0.00,VWS V14.01,2013-06-15 16:25:00,
2013-06-15 11:30:00,84.6,67.7,29.85,SE,142,1.0,1.0,57,0.00,,CLR,0.00,VWS V14.01,2013-06-15 16:30:00,
2013-06-15 11:35:00,85.0,68.1,29.86,ESE,109,0.0,3.0,57,0.00,,CLR,0.00,VWS V14.01,2013-06-15 16:35:00,
2013-06-15 11:40:00,85.1,66.6,29.86,SSW,207,3.0,3.0,54,0.00,,CLR,0.00,VWS V14.01,2013-06-15 16:40:00,
2013-06-15 11:45:00,85.1,67.7,29.86,SSE,165,0.0,3.0,56,0.00,,CLR,0.00,VWS V14.01,2013-06-15 16:45:00,
2013-06-15 11:50:00,85.1,67.7,29.86,SSE,159,0.0,3.0,56,0.00,,CLR,0.00,VWS V14.01,2013-06-15 16:50:00,
2013-06-15 11:56:00,85.3,66.8,29.86,South,190,1.0,4.0,54,0.00,,CLR,0.00,VWS V14.01,2013-06-15 16:56:00,
2013-06-15 12:00:00,85.2,67.2,29.86,SSW,194,0.0,4.0,55,0.00,,OVC110,0.00,VWS V14.01,2013-06-15 17:00:00,
2013-06-15 12:01:00,85.3,68.9,29.86,SSW,213,0.0,1.0,58,0.00,,CLR,0.00,VWS V14.01,2013-06-15 17:01:00,
2013-06-15 12:06:00,85.5,67.5,29.86,ESE,123,2.0,2.0,55,0.00,,CLR,0.00,VWS V14.01,2013-06-15 17:06:00,
2013-06-15 12:11:00,85.8,66.7,29.86,ESE,121,1.0,3.0,53,0.00,,CLR,0.00,VWS V14.01,2013-06-15 17:11:00,
2013-06-15 12:16:00,86.1,68.6,29.85,SE,146,1.0,3.0,56,0.00,,CLR,0.00,VWS V14.01,2013-06-15 17:16:00,
2013-06-15 12:21:00,86.4,68.3,29.85,SSW,207,0.0,4.0,55,0.00,,CLR,0.00,VWS V14.01,2013-06-15 17:21:00,
2013-06-15 12:26:00,86.4,68.3,29.84,SE,126,2.0,5.0,55,0.00,,CLR,0.00,VWS V14.01,2013-06-15 17:26:00,
2013-06-15 12:30:00,86.3,67.2,29.84,South,173,0.0,5.0,53,0.00,,OVC110,0.00,VWS V14.01,2013-06-15 17:30:00,
2013-06-15 12:31:00,86.3,66.6,29.84,SE,142,1.0,2.0,52,0.00,,CLR,0.00,VWS V14.01,2013-06-15 17:31:00,
2013-06-15 12:36:00,86.4,67.3,29.84,ESE,115,1.0,2.0,53,0.00,,CLR,0.00,VWS V14.01,2013-06-15 17:36:00,
2013-06-15 12:41:00,86.8,69.2,29.83,SSE,167,1.0,3.0,56,0.00,,CLR,0.00,VWS V14.01,2013-06-15 17:41:00,
2013-06-15 12:46:00,86.9,67.2,29.83,South,169,1.0,3.0,52,0.00,,CLR,0.00,VWS V14.01,2013-06-15 17:46:00,
2013-06-15 12:51:00,86.9,66.0,29.83,SSW,211,1.0,3.0,50,0.00,,CLR,0.00,VWS V14.01,2013-06-15 17:51:00,
2013-06-15 12:57:00,86.8,68.2,29.83,SSE,167,1.0,3.0,54,0.00,,CLR,0.00,VWS V14.01,2013-06-15 17:57:00,
2013-06-15 13:00:00,86.8,67.6,29.83,South,186,0.0,3.0,53,0.00,,OVC110,0.00,VWS V14.01,2013-06-15 18:00:00,
2013-06-15 13:02:00,86.8,67.6,29.83,SSE,157,0.0,2.0,53,0.00,,CLR,0.00,VWS V14.01,2013-06-15 18:02:00,
2013-06-15 13:07:00,87.0,69.9,29.82,South,190,0.0,3.0,57,0.00,,CLR,0.00,VWS V14.01,2013-06-15 18:07:00,
2013-06-15 13:12:00,87.4,67.6,29.82,SE,126,0.0,6.0,52,0.00,,CLR,0.00,VWS V14.01,2013-06-15 18:12:00,
2013-06-15 13:17:00,87.6,68.4,29.82,SSE,167,2.0,6.0,53,0.00,,CLR,0.00,VWS V14.01,2013-06-15 18:17:00,
2013-06-15 13:22:00,87.5,67.7,29.82,SE,146,3.0,6.0,52,0.00,,CLR,0.00,VWS V14.01,2013-06-15 18:22:00,
2013-06-15 13:27:00,86.9,68.3,29.82,SE,140,0.0,6.0,54,0.00,,CLR,0.00,VWS V14.01,2013-06-15 18:27:00,
2013-06-15 13:30:00,86.8,67.1,29.82,SE,146,2.0,6.0,52,0.00,,OVC110,0.00,VWS V14.01,2013-06-15 18:30:00,
2013-06-15 13:32:00,86.8,67.1,29.82,ESE,117,0.0,4.0,52,0.00,,CLR,0.00,VWS V14.01,2013-06-15 18:32:00,
2013-06-15 13:37:00,86.4,67.8,29.82,South,169,0.0,4.0,54,0.00,,CLR,0.00,VWS V14.01,2013-06-15 18:37:00,
2013-06-15 13:42:00,85.9,67.3,29.82,South,170,0.0,4.0,54,0.00,,CLR,0.00,VWS V14.01,2013-06-15 18:42:00,
2013-06-15 13:47:00,85.5,68.0,29.83,South,181,0.0,4.0,56,0.00,,CLR,0.00,VWS V14.01,2013-06-15 18:47:00,
2013-06-15 13:52:00,85.4,68.4,29.83,SSE,153,0.0,4.0,57,0.00,,CLR,0.00,VWS V14.01,2013-06-15 18:52:00,
2013-06-15 13:58:00,85.4,67.9,29.83,SSE,157,0.0,4.0,56,0.00,,CLR,0.00,VWS V14.01,2013-06-15 18:58:00,
2013-06-15 14:00:00,85.4,67.9,29.82,South,180,0.0,4.0,56,0.00,,OVC110,0.00,VWS V14.01,2013-06-15 19:00:00,
2013-06-15 14:03:00,85.2,66.7,29.83,South,180,0.0,2.0,54,0.00,,CLR,0.00,VWS V14.01,2013-06-15 19:03:00,
2013-06-15 14:08:00,84.9,66.4,29.83,ESE,115,0.0,2.0,54,0.00,,CLR,0.00,VWS V14.01,2013-06-15 19:08:00,
2013-06-15 14:13:00,84.9,66.9,29.83,SSE,159,0.0,2.0,55,0.00,,CLR,0.00,VWS V14.01,2013-06-15 19:13:00,
2013-06-15 14:18:00,85.0,66.5,29.82,ESE,118,1.0,3.0,54,0.00,,CLR,0.00,VWS V14.01,2013-06-15 19:18:00,
2013-06-15 14:23:00,85.0,66.0,29.82,South,175,0.0,3.0,53,0.00,,CLR,0.00,VWS V14.01,2013-06-15 19:23:00,
2013-06-15 14:28:00,84.9,66.9,29.82,ENE,73,0.0,3.0,55,0.00,,CLR,0.00,VWS V14.01,2013-06-15 19:28:00,
2013-06-15 14:30:00,84.9,67.5,29.82,SSW,197,1.0,3.0,56,0.00,,OVC110,0.00,VWS V14.01,2013-06-15 19:30:00,
2013-06-15 14:33:00,84.8,66.3,29.82,ESE,120,0.0,2.0,54,0.00,,CLR,0.00,VWS V14.01,2013-06-15 19:33:00,
2013-06-15 14:38:00,84.8,66.8,29.81,ESE,123,0.0,2.0,55,0.00,,CLR,0.00,VWS V14.01,2013-06-15 19:38:00,
2013-06-15 14:43:00,84.6,66.1,29.81,South,170,0.0,2.0,54,0.00,,CLR,0.00,VWS V14.01,2013-06-15 19:43:00,
2013-06-15 14:48:00,84.4,66.5,29.81,South,182,0.0,2.0,55,0.00,,CLR,0.00,VWS V14.01,2013-06-15 19:48:00,
2013-06-15 14:53:00,84.2,66.3,29.80,South,182,0.0,2.0,55,0.00,,CLR,0.00,VWS V14.01,2013-06-15 19:53:00,
2013-06-15 14:59:00,84.3,67.9,29.80,SSE,166,0.0,2.0,58,0.00,,CLR,0.00,VWS V14.01,2013-06-15 19:59:00,
2013-06-15 15:00:00,84.4,67.0,29.80,SSE,167,0.0,2.0,56,0.00,,OVC110,0.00,VWS V14.01,2013-06-15 20:00:00,
2013-06-15 15:04:00,84.6,67.7,29.80,South,182,0.0,1.0,57,0.00,,CLR,0.00,VWS V14.01,2013-06-15 20:04:00,
2013-06-15 15:09:00,84.7,66.8,29.80,SSE,166,0.0,2.0,55,0.00,,CLR,0.00,VWS V14.01,2013-06-15 20:09:00,
2013-06-15 15:14:00,84.8,67.4,29.79,WNW,283,1.0,2.0,56,0.00,,CLR,0.00,VWS V14.01,2013-06-15 20:14:00,
2013-06-15 15:19:00,84.7,66.8,29.78,South,184,0.0,3.0,55,0.00,,CLR,0.00,VWS V14.01,2013-06-15 20:19:00,
2013-06-15 15:24:00,84.7,67.3,29.78,South,188,0.0,3.0,56,0.00,,CLR,0.00,VWS V14.01,2013-06-15 20:24:00,
2013-06-15 15:29:00,84.9,67.5,29.77,South,181,0.0,3.0,56,0.00,,CLR,0.00,VWS V14.01,2013-06-15 20:29:00,
2013-06-15 15:30:00,84.9,67.5,29.77,ESE,108,0.0,3.0,56,0.00,,OVC110,0.00,VWS V14.01,2013-06-15 20:30:00,
2013-06-15 15:34:00,85.2,67.8,29.77,SSE,166,0.0,3.0,56,0.00,,CLR,0.00,VWS V14.01,2013-06-15 20:34:00,
2013-06-15 15:39:00,85.4,68.4,29.77,ESE,120,1.0,3.0,57,0.00,,CLR,0.00,VWS V14.01,2013-06-15 20:39:00,
2013-06-15 15:44:00,85.6,69.1,29.77,ESE,103,0.0,3.0,58,0.00,,CLR,0.00,VWS V14.01,2013-06-15 20:44:00,
2013-06-15 15:49:00,85.9,70.4,29.77,SSE,163,1.0,4.0,60,0.00,,CLR,0.00,VWS V14.01,2013-06-15 20:49:00,
2013-06-15 15:54:00,86.1,70.1,29.77,WSW,250,0.0,4.0,59,0.00,,CLR,0.00,VWS V14.01,2013-06-15 20:54:00,
2013-06-15 16:00:00,86.0,68.5,29.77,SE,137,0.0,4.0,56,0.00,,CLR,0.00,VWS V14.01,2013-06-15 21:00:00,
2013-06-15 16:05:00,85.9,67.3,29.76,South,179,1.0,3.0,54,0.00,,CLR,0.00,VWS V14.01,2013-06-15 21:05:00,
2013-06-15 16:10:00,85.9,67.9,29.75,SSW,192,0.0,3.0,55,0.00,,CLR,0.00,VWS V14.01,2013-06-15 21:10:00,
2013-06-15 16:15:00,86.0,68.0,29.75,SSW,197,0.0,4.0,55,0.00,,CLR,0.00,VWS V14.01,2013-06-15 21:15:00,
2013-06-15 16:20:00,86.1,69.1,29.76,SSE,147,0.0,4.0,57,0.00,,CLR,0.00,VWS V14.01,2013-06-15 21:20:00,
2013-06-15 16:25:00,85.9,67.3,29.76,SE,137,1.0,4.0,54,0.00,,CLR,0.00,VWS V14.01,2013-06-15 21:25:00,
2013-06-15 16:30:00,85.7,67.7,29.76,SSE,161,0.0,0.0,55,0.00,,CLR,0.00,VWS V14.01,2013-06-15 21:30:00,
2013-06-15 16:35:00,85.2,68.8,29.77,SSE,161,0.0,1.0,58,0.00,,CLR,0.00,VWS V14.01,2013-06-15 21:35:00,
2013-06-15 16:40:00,85.0,67.0,29.77,South,172,0.0,2.0,55,0.00,,CLR,0.00,VWS V14.01,2013-06-15 21:40:00,
2013-06-15 16:45:00,85.0,67.6,29.77,SSE,159,0.0,3.0,56,0.00,,CLR,0.00,VWS V14.01,2013-06-15 21:45:00,
2013-06-15 16:50:00,84.9,66.9,29.77,SW,223,0.0,3.0,55,0.00,,CLR,0.00,VWS V14.01,2013-06-15 21:50:00,
2013-06-15 16:55:00,84.8,67.4,29.77,South,190,0.0,3.0,56,0.00,,CLR,0.00,VWS V14.01,2013-06-15 21:55:00,
2013-06-15 17:00:00,84.7,67.3,29.77,South,190,0.0,3.0,56,0.00,,OVC110,0.00,VWS V14.01,2013-06-15 22:00:00,
2013-06-15 17:01:00,84.6,67.7,29.77,South,190,0.0,0.0,57,0.00,,CLR,0.00,VWS V14.01,2013-06-15 22:01:00,
2013-06-15 17:06:00,84.5,67.1,29.77,South,190,0.0,1.0,56,0.00,,CLR,0.00,VWS V14.01,2013-06-15 22:06:00,
2013-06-15 17:11:00,84.4,67.5,29.77,South,181,0.0,1.0,57,0.00,,CLR,0.00,VWS V14.01,2013-06-15 22:11:00,
2013-06-15 17:16:00,84.3,68.4,29.77,South,181,0.0,1.0,59,0.00,,CLR,0.00,VWS V14.01,2013-06-15 22:16:00,
2013-06-15 17:21:00,84.1,67.7,29.77,South,181,0.0,1.0,58,0.00,,CLR,0.00,VWS V14.01,2013-06-15 22:21:00,
2013-06-15 17:26:00,83.9,67.1,29.77,South,181,0.0,1.0,57,0.00,,CLR,0.00,VWS V14.01,2013-06-15 22:26:00,
2013-06-15 17:30:00,83.9,68.1,29.77,South,181,0.0,1.0,59,0.00,,OVC110,0.00,VWS V14.01,2013-06-15 22:30:00,
2013-06-15 17:31:00,83.8,68.0,29.77,South,181,0.0,0.0,59,0.00,,CLR,0.00,VWS V14.01,2013-06-15 22:31:00,
2013-06-15 17:36:00,83.7,68.3,29.77,South,171,0.0,0.0,60,0.00,,CLR,0.00,VWS V14.01,2013-06-15 22:36:00,
2013-06-15 17:41:00,83.7,69.3,29.76,South,171,0.0,0.0,62,0.00,,CLR,0.00,VWS V14.01,2013-06-15 22:41:00,
2013-06-15 17:46:00,83.6,68.3,29.76,South,171,0.0,0.0,60,0.00,,CLR,0.00,VWS V14.01,2013-06-15 22:46:00,
2013-06-15 17:51:00,83.6,68.7,29.76,SE,134,0.0,1.0,61,0.00,,CLR,0.00,VWS V14.01,2013-06-15 22:51:00,
2013-06-15 17:56:00,83.6,69.7,29.76,SE,134,0.0,1.0,63,0.00,,CLR,0.00,VWS V14.01,2013-06-15 22:56:00,
2013-06-15 18:00:00,83.6,70.1,29.76,SE,134,0.0,1.0,64,0.00,,,0.00,VWS V14.01,2013-06-15 23:00:00,
2013-06-15 18:01:00,83.5,69.6,29.77,SE,129,1.0,1.0,63,0.00,,CLR,0.00,VWS V14.01,2013-06-15 23:01:00,
2013-06-15 18:07:00,83.4,70.4,29.77,SE,129,0.0,1.0,65,0.00,,CLR,0.00,VWS V14.01,2013-06-15 23:07:00,
2013-06-15 18:12:00,83.2,68.8,29.78,SE,129,0.0,1.0,62,0.00,,CLR,0.00,VWS V14.01,2013-06-15 23:12:00,
2013-06-15 18:17:00,83.0,69.1,29.78,SE,129,0.0,1.0,63,0.00,,CLR,0.00,VWS V14.01,2013-06-15 23:17:00,
2013-06-15 18:22:00,82.7,69.8,29.78,SE,129,0.0,1.0,65,0.00,,CLR,0.00,VWS V14.01,2013-06-15 23:22:00,
2013-06-15 18:27:00,82.6,70.1,29.78,SE,129,0.0,1.0,66,0.00,,CLR,0.00,VWS V14.01,2013-06-15 23:27:00,
2013-06-15 18:30:00,82.5,70.0,29.78,SE,129,0.0,1.0,66,0.00,,OVC110,0.00,VWS V14.01,2013-06-15 23:30:00,
2013-06-15 18:32:00,82.4,70.3,29.78,SE,129,0.0,0.0,67,0.00,,CLR,0.00,VWS V14.01,2013-06-15 23:32:00,
2013-06-15 18:37:00,82.3,69.8,29.78,ESE,121,0.0,0.0,66,0.00,,CLR,0.00,VWS V14.01,2013-06-15 23:37:00,
2013-06-15 18:42:00,82.1,69.6,29.78,ESE,121,0.0,0.0,66,0.00,,CLR,0.00,VWS V14.01,2013-06-15 23:42:00,
2013-06-15 18:47:00,81.9,69.9,29.78,ESE,121,0.0,0.0,67,0.00,,CLR,0.00,VWS V14.01,2013-06-15 23:47:00,
2013-06-15 18:52:00,81.6,69.6,29.78,ESE,121,0.0,0.0,67,0.00,,CLR,0.00,VWS V14.01,2013-06-15 23:52:00,
2013-06-15 18:57:00,81.4,69.4,29.78,ESE,121,0.0,0.0,67,0.00,,CLR,0.00,VWS V14.01,2013-06-15 23:57:00,
2013-06-15 19:00:00,81.3,70.2,29.78,ESE,121,0.0,0.0,69,0.00,,,0.00,VWS V14.01,2013-06-16 00:00:00,
2013-06-15 19:02:00,81.1,70.0,29.78,ESE,121,0.0,0.0,69,0.00,,CLR,0.00,VWS V14.01,2013-06-16 00:02:00,
2013-06-15 19:08:00,80.9,69.8,29.78,ESE,121,0.0,1.0,69,0.00,,CLR,0.00,VWS V14.01,2013-06-16 00:08:00,
2013-06-15 19:13:00,80.7,70.0,29.78,ESE,121,0.0,1.0,70,0.00,,CLR,0.00,VWS V14.01,2013-06-16 00:13:00,
2013-06-15 19:18:00,80.5,69.4,29.78,SE,130,0.0,1.0,69,0.00,,CLR,0.00,VWS V14.01,2013-06-16 00:18:00,
2013-06-15 19:23:00,80.5,69.8,29.78,ESE,119,0.0,1.0,70,0.00,,CLR,0.00,VWS V14.01,2013-06-16 00:23:00,
2013-06-15 19:28:00,80.4,69.7,29.78,ESE,119,0.0,1.0,70,0.00,,CLR,0.00,VWS V14.01,2013-06-16 00:28:00,
2013-06-15 19:30:00,80.3,68.8,29.78,ESE,119,0.0,1.0,68,0.00,,OVC110,0.00,VWS V14.01,2013-06-16 00:30:00,
2013-06-15 19:33:00,80.3,69.2,29.79,ESE,119,0.0,0.0,69,0.00,,CLR,0.00,VWS V14.01,2013-06-16 00:33:00,
2013-06-15 19:38:00,80.4,69.3,29.78,ESE,119,0.0,0.0,69,0.00,,CLR,0.00,VWS V14.01,2013-06-16 00:38:00,
2013-06-15 19:43:00,80.3,68.8,29.79,ESE,119,0.0,0.0,68,0.00,,CLR,0.00,VWS V14.01,2013-06-16 00:43:00,
2013-06-15 19:48:00,80.4,68.9,29.78,ESE,119,0.0,1.0,68,0.00,,CLR,0.00,VWS V14.01,2013-06-16 00:48:00,
2013-06-15 19:53:00,80.3,68.3,29.78,South,174,0.0,1.0,67,0.00,,CLR,0.00,VWS V14.01,2013-06-16 00:53:00,
2013-06-15 19:58:00,80.4,68.0,29.79,South,186,0.0,1.0,66,0.00,,CLR,0.00,VWS V14.01,2013-06-16 00:58:00,
2013-06-15 20:00:00,80.4,68.0,29.78,South,186,0.0,1.0,66,0.00,,,0.00,VWS V14.01,2013-06-16 01:00:00,
2013-06-15 20:03:00,80.4,68.0,29.79,South,186,0.0,0.0,66,0.00,,CLR,0.00,VWS V14.01,2013-06-16 01:03:00,
2013-06-15 20:08:00,80.3,67.9,29.78,South,186,0.0,0.0,66,0.00,,CLR,0.00,VWS V14.01,2013-06-16 01:08:00,
2013-06-15 20:14:00,80.3,68.3,29.78,South,186,0.0,0.0,67,0.00,,CLR,0.00,VWS V14.01,2013-06-16 01:14:00,
2013-06-15 20:19:00,80.2,68.3,29.79,South,186,0.0,0.0,67,0.00,,CLR,0.00,VWS V14.01,2013-06-16 01:19:00,
2013-06-15 20:24:00,79.9,68.0,29.80,South,186,0.0,0.0,67,0.00,,CLR,0.00,VWS V14.01,2013-06-16 01:24:00,
2013-06-15 20:29:00,79.8,68.3,29.80,South,186,0.0,0.0,68,0.00,,CLR,0.00,VWS V14.01,2013-06-16 01:29:00,
2013-06-15 20:30:00,79.7,68.2,29.80,South,186,0.0,0.0,68,0.00,,OVC110,0.00,VWS V14.01,2013-06-16 01:30:00,
2013-06-15 20:34:00,79.6,68.5,29.80,South,186,0.0,0.0,69,0.00,,CLR,0.00,VWS V14.01,2013-06-16 01:34:00,
2013-06-15 20:39:00,79.3,68.3,29.81,South,186,0.0,0.0,69,0.00,,CLR,0.00,VWS V14.01,2013-06-16 01:39:00,
2013-06-15 20:44:00,79.1,68.5,29.81,South,186,0.0,0.0,70,0.00,,CLR,0.00,VWS V14.01,2013-06-16 01:44:00,
2013-06-15 20:49:00,78.9,68.7,29.81,South,186,0.0,0.0,71,0.00,,CLR,0.00,VWS V14.01,2013-06-16 01:49:00,
2013-06-15 20:54:00,78.7,68.5,29.81,South,186,0.0,0.0,71,0.00,,CLR,0.00,VWS V14.01,2013-06-16 01:54:00,
2013-06-15 20:59:00,78.4,68.2,29.81,South,186,0.0,0.0,71,0.00,,CLR,0.00,VWS V14.01,2013-06-16 01:59:00,
2013-06-15 21:00:00,78.4,68.2,29.81,South,186,0.0,0.0,71,0.00,,OVC110,0.00,VWS V14.01,2013-06-16 02:00:00,
2013-06-15 21:04:00,78.2,68.4,29.82,South,186,0.0,0.0,72,0.00,,CLR,0.00,VWS V14.01,2013-06-16 02:04:00,
2013-06-15 21:09:00,78.0,68.7,29.81,South,186,0.0,0.0,73,0.00,,CLR,0.00,VWS V14.01,2013-06-16 02:09:00,
2013-06-15 21:15:00,77.8,68.9,29.81,South,186,0.0,0.0,74,0.00,,CLR,0.00,VWS V14.01,2013-06-16 02:15:00,
2013-06-15 21:20:00,77.6,68.7,29.82,South,186,0.0,0.0,74,0.00,,CLR,0.00,VWS V14.01,2013-06-16 02:20:00,
2013-06-15 21:25:00,77.5,69.0,29.82,South,186,0.0,0.0,75,0.00,,CLR,0.00,VWS V14.01,2013-06-16 02:25:00,
2013-06-15 21:30:00,77.4,68.9,29.82,South,186,0.0,0.0,75,0.00,,CLR,0.00,VWS V14.01,2013-06-16 02:30:00,
2013-06-15 21:35:00,77.3,69.2,29.82,South,186,0.0,0.0,76,0.00,,CLR,0.00,VWS V14.01,2013-06-16 02:35:00,
2013-06-15 21:40:00,77.1,68.6,29.83,South,186,0.0,0.0,75,0.00,,CLR,0.00,VWS V14.01,2013-06-16 02:40:00,
2013-06-15 21:45:00,77.2,69.1,29.83,NNW,335,1.0,1.0,76,0.00,,CLR,0.00,VWS V14.01,2013-06-16 02:45:00,
2013-06-15 21:50:00,77.4,69.2,29.83,WNW,294,2.0,6.0,76,0.00,,CLR,0.00,VWS V14.01,2013-06-16 02:50:00,
2013-06-15 21:55:00,77.3,69.2,29.83,NNE,17,0.0,6.0,76,0.00,,CLR,0.00,VWS V14.01,2013-06-16 02:55:00,
2013-06-15 22:00:00,77.2,69.4,29.83,NW,314,0.0,1.0,77,0.00,,CLR,0.00,VWS V14.01,2013-06-16 03:00:00,
2013-06-15 22:05:00,77.0,69.6,29.83,NNW,331,0.0,1.0,78,0.00,,CLR,0.00,VWS V14.01,2013-06-16 03:05:00,
2013-06-15 22:10:00,76.7,69.3,29.84,NNW,339,0.0,2.0,78,0.00,,CLR,0.00,VWS V14.01,2013-06-16 03:10:00,
2013-06-15 22:15:00,76.6,69.6,29.84,NNE,19,0.0,3.0,79,0.00,,CLR,0.00,VWS V14.01,2013-06-16 03:15:00,
2013-06-15 22:21:00,76.4,69.8,29.84,NW,311,0.0,3.0,80,0.00,,CLR,0.00,VWS V14.01,2013-06-16 03:21:00,
2013-06-15 22:26:00,76.2,69.6,29.84,North,360,2.0,6.0,80,0.00,,CLR,0.00,VWS V14.01,2013-06-16 03:26:00,
2013-06-15 22:30:00,76.0,69.4,29.84,NW,321,0.0,6.0,80,0.00,,OVC110,0.00,VWS V14.01,2013-06-16 03:30:00,
2013-06-15 22:31:00,75.9,69.3,29.84,NNW,337,4.0,4.0,80,0.00,,CLR,0.00,VWS V14.01,2013-06-16 03:31:00,
2013-06-15 22:36:00,75.6,69.0,29.84,NNE,29,2.0,7.0,80,0.00,,CLR,0.00,VWS V14.01,2013-06-16 03:36:00,
2013-06-15 22:41:00,75.4,69.2,29.84,WNW,298,0.0,7.0,81,0.00,,CLR,0.00,VWS V14.01,2013-06-16 03:41:00,
2013-06-15 22:46:00,75.2,69.0,29.83,North,5,1.0,7.0,81,0.00,,CLR,0.00,VWS V14.01,2013-06-16 03:46:00,
2013-06-15 22:51:00,75.0,69.1,29.83,NE,53,2.0,7.0,82,0.00,,FEW055,0.00,VWS V14.01,2013-06-16 03:51:00,
2013-06-15 22:56:00,74.8,68.9,29.83,East,79,1.0,7.0,82,0.00,,FEW055,0.00,VWS V14.01,2013-06-16 03:56:00,
2013-06-15 23:00:00,74.7,68.8,29.83,NW,311,0.0,7.0,82,0.00,,OVC110,0.00,VWS V14.01,2013-06-16 04:00:00,
2013-06-15 23:01:00,74.7,69.2,29.84,NW,312,0.0,2.0,83,0.00,,FEW055,0.00,VWS V14.01,2013-06-16 04:01:00,
2013-06-15 23:02:00,74.6,69.1,29.84,NE,52,0.0,2.0,83,0.00,,FEW055,0.00,VWS V14.01,2013-06-16 04:02:00,
2013-06-15 23:03:00,74.6,69.1,29.84,West,280,0.0,2.0,83,0.00,,FEW055,0.00,VWS V14.01,2013-06-16 04:03:00,
2013-06-15 23:08:00,74.5,68.7,29.84,NNW,347,2.0,3.0,82,0.00,,FEW055,0.00,VWS V14.01,2013-06-16 04:08:00,
2013-06-15 23:14:00,74.4,68.6,29.84,NNW,327,3.0,4.0,82,0.00,,FEW055,0.00,VWS V14.01,2013-06-16 04:14:00,
2013-06-15 23:19:00,74.3,68.4,29.84,NNW,344,0.0,4.0,82,0.00,,FEW055,0.00,VWS V14.01,2013-06-16 04:19:00,
2013-06-15 23:24:00,74.2,68.4,29.84,NNW,327,0.0,4.0,82,0.00,,FEW055,0.00,VWS V14.01,2013-06-16 04:24:00,
2013-06-15 23:29:00,74.1,68.3,29.84,NNW,337,3.0,5.0,82,0.00,,FEW055,0.00,VWS V14.01,2013-06-16 04:29:00,
2013-06-15 23:30:00,74.1,68.3,29.84,NNW,327,4.0,5.0,82,0.00,,OVC110,0.00,VWS V14.01,2013-06-16 04:30:00,
2013-06-15 23:34:00,74.0,68.2,29.84,North,360,1.0,6.0,82,0.00,,FEW055,0.00,VWS V14.01,2013-06-16 04:34:00,
2013-06-15 23:39:00,73.8,68.0,29.84,WNW,301,0.0,6.0,82,0.00,,FEW055,0.00,VWS V14.01,2013-06-16 04:39:00,
2013-06-15 23:44:00,73.7,67.9,29.84,NNW,337,0.0,6.0,82,0.00,,FEW055,0.00,VWS V14.01,2013-06-16 04:44:00,
2013-06-15 23:49:00,73.6,67.8,29.83,NNW,336,1.0,6.0,82,0.00,,FEW055,0.00,VWS V14.01,2013-06-16 04:49:00,
2013-06-15 23:54:00,73.5,67.7,29.83,NW,322,0.0,6.0,82,0.00,,FEW055,0.00,VWS V14.01,2013-06-16 04:54:00,
2013-06-15 23:59:00,73.4,67.6,29.82,NNW,327,0.0,6.0,82,0.00,,FEW055,0.00,VWS V14.01,2013-06-16 04:59:00,